Location: Riverside Cemetery
(38.3047°N, 99.7773°W)
Time: 15:10:35
(UTC+00:00)

Cosmos 1500 - Pass Details

Date: 19 September 2020
Orbit: 498 x 520 km, 82.5° (Epoch: 21 October)

Event Time Altitude Azimuth Distance (km) Brightness Sun altitude
Rises 10:51:46 0° 348° (NNW) 2,646 6.9 -18.8°
Reaches altitude 10° 10:53:56 10° 345° (NNW) 1,752 5.9 -18.4°
Maximum altitude 10:57:42 58° 266° (W) 604 3.1 -17.6°
Drops below altitude 10° 11:01:26 10° 187° (S) 1,726 5.6 -16.9°
Sets 11:03:33 0° 183° (S) 2,603 6.6 -16.5°
